This is the latest recevied weather packets stored in our database for station/object IK1AMC-3. If no packets are shown the sender has not sent any weather packets the latest 1 day(s).
| Time | Temp. | Humidity | Pressure | Rain* | Wind** | Luminosity | Snow |
|---|---|---|---|---|---|---|---|
| 1777784226 | 14.44° C | 66% | 1019.5 hPa | - | - | - | - |
| 1777783025 | 13.89° C | 65% | 1019.3 hPa | - | - | - | - |
| 1777781824 | 13.89° C | 66% | 1019.3 hPa | - | - | - | - |
| 1777780622 | 13.89° C | 64% | 1019.3 hPa | - | - | - | - |
| 1777779421 | 13.89° C | 64% | 1019.4 hPa | - | - | - | - |
| 1777778220 | 14.44° C | 65% | 1019.5 hPa | - | - | - | - |
| 1777777018 | 14.44° C | 66% | 1019.5 hPa | - | - | - | - |
| 1777775817 | 14.44° C | 66% | 1019.8 hPa | - | - | - | - |
| 1777774616 | 14.44° C | 66% | 1019.6 hPa | - | - | - | - |
| 1777773415 | 14.44° C | 67% | 1019.7 hPa | - | - | - | - |
| 1777772213 | 15° C | 64% | 1019.6 hPa | - | - | - | - |
| 1777771012 | 14.44° C | 66% | 1019.8 hPa | - | - | - | - |
| 1777769811 | 14.44° C | 66% | 1019.8 hPa | - | - | - | - |
| 1777768609 | 15° C | 64% | 1019.9 hPa | - | - | - | - |
| 1777767408 | 14.44° C | 65% | 1020.2 hPa | - | - | - | - |
| 1777766207 | 15° C | 63% | 1020 hPa | - | - | - | - |
| 1777765005 | 15° C | 62% | 1020.1 hPa | - | - | - | - |
| 1777763804 | 15° C | 60% | 1020.6 hPa | - | - | - | - |
| 1777762603 | 15° C | 60% | 1020.7 hPa | - | - | - | - |
| 1777761402 | 15.56° C | 58% | 1020.8 hPa | - | - | - | - |
| 1777760201 | 15.56° C | 56% | 1020.9 hPa | - | - | - | - |
| 1777758999 | 16.11° C | 54% | 1020.9 hPa | - | - | - | - |
| 1777757798 | 15.56° C | 53% | 1020.9 hPa | - | - | - | - |
| 1777756597 | 15.56° C | 51% | 1021 hPa | - | - | - | - |
| 1777755395 | 16.11° C | 49% | 1021.2 hPa | - | - | - | - |
* Rain since midnight (hover to see other rain measurements)
** Current wind speed in m/s (hover to see current wind gust speed)